GW3504 Weather Reports


time (UTC)temp
C
wind
direction
speed
KPH
gust
KPH
rain 1hr
cm
rain 24hr
cm
rain mn
cm
humidity
%
barometer
mb
20260510015020 22 20 1.6 12.9 0.00 0.03 0.03 44 1011.1
20260510014536 22 14 3.2 19.3 0.00 0.03 0.03 43 1011.1
20260510014025 22 24 4.8 20.9 0.00 0.03 0.03 43 1011.1
20260510013523 22 338 8.0 20.9 0.00 0.03 0.03 42 1010.8
20260510013041 22 28 8.0 20.9 0.00 0.03 0.03 42 1010.8
20260510012523 22 350 6.4 19.3 0.00 0.03 0.03 42 1010.7
20260510012023 22 360 4.8 17.7 0.00 0.03 0.03 43 1010.7
20260510011536 23 35 6.4 17.7 0.00 0.03 0.03 43 1010.7
20260510011021 23 5 4.8 17.7 0.00 0.03 0.03 43 1010.7
20260510010522 23 0 3.2 16.1 0.00 0.03 0.03 43 1010.6
20260510010036 23 360 3.2 19.3 0.00 0.03 0.03 43 1010.4
20260510005523 23 25 1.6 19.3 0.00 0.03 0.03 43 1010.3
20260510005022 23 335 3.2 19.3 0.00 0.03 0.03 43 1010.1
20260510004536 23 22 1.6 17.7 0.00 0.03 0.03 43 1010.0
20260510004022 23 0 3.2 17.7 0.00 0.03 0.03 42 1010.0
20260510003523 23 28 3.2 17.7 0.00 0.03 0.03 42 1010.0
20260510003051 23 46 4.8 14.5 0.00 0.03 0.03 42 1009.9
20260510002522 24 5 1.6 17.7 0.00 0.03 0.03 41 1009.8
20260510002023 24 348 3.2 17.7 0.00 0.03 0.03 42 1009.8
20260510001541 24 28 4.8 19.3 0.00 0.03 0.03 41 1009.7
20260510001024 24 31 4.8 29.0 0.00 0.03 0.03 41 1009.7
20260510000524 25 360 8.0 29.0 0.00 0.03 0.03 40 1009.6
20260510000039 25 348 8.0 25.7 0.00 0.03 0.03 39 1009.7
20260509235521 25 355 3.2 16.1 0.00 0.03 0.03 38 1009.6
20260509235109 25 292 3.2 14.5 0.00 0.03 0.03 38 1009.4
20260509234545 25 292 4.8 14.5 0.00 0.03 0.03 38 1009.3
20260509234030 25 297 3.2 9.7 0.00 0.03 0.03 38 1009.3
20260509233525 25 340 1.6 19.3 0.00 0.03 0.03 38 1009.3
20260509233040 25 320 4.8 19.3 0.00 0.03 0.03 37 1009.2
20260509232525 25 284 1.6 14.5 0.00 0.03 0.03 38 1009.2
20260509232027 25 51 3.2 14.5 0.00 0.03 0.03 38 1009.1
20260509231536 25 286 3.2 14.5 0.00 0.03 0.03 37 1009.1
20260509231026 26 300 1.6 11.3 0.00 0.03 0.03 37 1009.1
20260509230525 26 287 1.6 17.7 0.00 0.03 0.03 36 1008.9
20260509230036 26 302 1.6 17.7 0.00 0.03 0.03 37 1008.9
20260509225525 26 310 4.8 19.3 0.00 0.03 0.03 36 1009.0
20260509225025 26 346 4.8 19.3 0.00 0.03 0.03 36 1009.0
20260509224536 26 293 1.6 19.3 0.00 0.03 0.03 36 1009.0
20260509224023 26 318 4.8 19.3 0.00 0.03 0.03 35 1009.0
20260509223525 26 285 3.2 16.1 0.00 0.03 0.03 35 1008.8
20260509223035 26 0 4.8 19.3 0.00 0.03 0.03 34 1008.6
20260509222524 27 287 6.4 24.1 0.00 0.03 0.03 33 1008.7
20260509222025 27 300 8.0 24.1 0.00 0.03 0.03 32 1008.8
20260509221536 27 282 6.4 19.3 0.00 0.03 0.03 33 1008.7
20260509221028 27 284 8.0 19.3 0.00 0.03 0.03 32 1008.6
20260509220525 27 331 3.2 19.3 0.00 0.03 0.03 33 1008.5
20260509220052 27 285 4.8 19.3 0.00 0.03 0.03 33 1008.5
20260509215524 27 307 6.4 22.5 0.00 0.05 0.03 32 1008.5
20260509215028 27 268 4.8 22.5 0.00 0.05 0.03 32 1008.5
20260509214540 27 197 3.2 20.9 0.00 0.05 0.03 32 1008.4
20260509214025 27 275 6.4 29.0 0.00 0.05 0.03 30 1008.3
20260509213527 28 279 8.0 29.0 0.00 0.05 0.03 30 1008.3
20260509213042 28 292 8.0 19.3 0.00 0.05 0.03 29 1008.3
20260509212526 28 0 4.8 20.9 0.00 0.05 0.03 30 1008.2
20260509212023 28 269 3.2 20.9 0.00 0.05 0.03 30 1008.2
20260509211543 28 277 8.0 20.9 0.00 0.05 0.03 28 1008.3
20260509211025 28 323 4.8 20.9 0.00 0.05 0.03 28 1008.3
20260509210525 28 333 6.4 29.0 0.00 0.05 0.03 29 1008.2
20260509210036 28 295 4.8 29.0 0.00 0.05 0.03 28 1008.2
20260509205525 28 296 8.0 29.0 0.00 0.05 0.03 27 1008.3
20260509205024 28 307 6.4 24.1 0.00 0.05 0.03 27 1008.4
20260509204555 29 284 8.0 22.5 0.00 0.05 0.03 27 1008.5
20260509204024 28 272 8.0 25.7 0.00 0.05 0.03 28 1008.5
20260509203524 28 252 8.0 25.7 0.00 0.05 0.03 29 1008.4
20260509203039 28 280 11.3 25.7 0.00 0.05 0.03 29 1008.6
20260509202523 28 270 8.0 25.7 0.00 0.05 0.03 30 1008.6
20260509202023 28 273 11.3 25.7 0.00 0.05 0.03 29 1008.7
20260509201541 28 225 6.4 16.1 0.00 0.05 0.03 30 1008.6
20260509201024 28 87 3.2 20.9 0.00 0.05 0.03 30 1008.6
20260509200525 28 0 3.2 20.9 0.00 0.05 0.03 31 1008.7
20260509200041 28 306 4.8 25.7 0.00 0.05 0.03 30 1008.7
20260509195524 28 284 9.7 25.7 0.00 0.08 0.03 30 1008.7
20260509195028 28 289 9.7 27.4 0.00 0.08 0.03 30 1008.9
20260509194541 28 303 12.9 27.4 0.00 0.08 0.03 29 1008.9
20260509194024 28 302 11.3 29.0 0.00 0.08 0.03 32 1009.0
20260509193525 27 268 8.0 29.0 0.00 0.08 0.03 33 1009.0
20260509193045 28 269 9.7 27.4 0.00 0.08 0.03 31 1009.1
20260509192527 27 306 11.3 27.4 0.00 0.08 0.03 33 1009.0
20260509192027 28 284 8.0 22.5 0.00 0.08 0.03 33 1009.1
20260509191546 27 310 3.2 25.7 0.00 0.08 0.03 34 1009.1
20260509191025 27 282 9.7 25.7 0.00 0.08 0.03 32 1009.1
20260509190527 27 292 9.7 27.4 0.00 0.08 0.03 33 1009.3
20260509190039 27 289 9.7 27.4 0.00 0.08 0.03 32 1009.4
20260509185525 28 287 8.0 22.5 0.00 0.08 0.03 33 1009.3
20260509185028 28 229 6.4 20.9 0.00 0.08 0.03 34 1009.3
20260509184538 28 301 4.8 19.3 0.00 0.08 0.03 34 1009.4
20260509184024 27 162 4.8 20.9 0.00 0.08 0.03 36 1009.5
20260509183525 27 281 4.8 24.1 0.00 0.08 0.03 35 1009.5
20260509183035 27 236 6.4 24.1 0.00 0.08 0.03 34 1009.5
20260509182524 28 260 4.8 17.7 0.00 0.08 0.03 36 1009.5
20260509182024 27 317 3.2 17.7 0.00 0.08 0.03 37 1009.6
20260509181535 27 261 3.2 17.7 0.00 0.08 0.03 36 1009.6
20260509181025 27 274 3.2 12.9 0.00 0.08 0.03 37 1009.7
20260509180526 27 308 3.2 12.9 0.00 0.08 0.03 37 1009.7
20260509180043 27 111 3.2 16.1 0.00 0.08 0.03 40 1009.8
20260509175527 27 277 3.2 19.3 0.00 0.08 0.03 41 1009.9
20260509175026 26 304 3.2 19.3 0.00 0.08 0.03 40 1009.8
20260509174536 26 300 6.4 19.3 0.00 0.08 0.03 40 1009.9
20260509174024 26 315 4.8 20.9 0.00 0.08 0.03 39 1010.1
20260509173522 26 298 8.0 20.9 0.00 0.08 0.03 42 1010.1
20260509173039 26 294 1.6 19.3 0.00 0.08 0.03 40 1010.1
20260509172521 25 0 6.4 19.3 0.00 0.08 0.03 41 1010.1
20260509172024 26 290 3.2 16.1 0.00 0.08 0.03 40 1010.2
20260509171538 26 285 3.2 16.1 0.00 0.08 0.03 42 1010.2
20260509171021 26 187 3.2 12.9 0.00 0.08 0.03 42 1010.2
20260509170523 25 200 3.2 14.5 0.00 0.08 0.03 43 1010.3
20260509170038 25 265 1.6 14.5 0.00 0.08 0.03 44 1010.3
20260509165524 25 285 4.8 14.5 0.00 0.08 0.03 41 1010.3
20260509165027 25 269 1.6 14.5 0.00 0.08 0.03 42 1010.3
20260509164536 25 0 1.6 14.5 0.00 0.08 0.03 44 1010.3
20260509164024 25 0 3.2 14.5 0.00 0.08 0.03 45 1010.2
20260509163522 25 280 1.6 14.5 0.00 0.08 0.03 45 1010.2
20260509163040 24 283 4.8 14.5 0.00 0.08 0.03 44 1010.3
20260509162522 25 301 0.0 14.5 0.00 0.08 0.03 45 1010.2
20260509162025 23 304 4.8 16.1 0.00 0.08 0.03 46 1010.2
20260509161536 23 254 3.2 16.1 0.00 0.08 0.03 46 1010.2
20260509161026 24 0 1.6 17.7 0.00 0.08 0.03 46 1010.2
20260509160524 23 231 1.6 20.9 0.00 0.08 0.03 46 1010.1
20260509160035 23 292 11.3 20.9 0.00 0.08 0.03 46 1010.1
20260509155522 23 296 4.8 12.9 0.00 0.08 0.03 48 1010.1
20260509155022 23 291 3.2 16.1 0.00 0.08 0.03 48 1010.1
20260509154536 22 271 1.6 17.7 0.00 0.08 0.03 52 1010.1
20260509154024 22 296 6.4 17.7 0.00 0.08 0.03 49 1010.2
20260509153522 22 303 3.2 17.7 0.00 0.08 0.03 49 1010.2
20260509153036 22 296 1.6 24.1 0.00 0.08 0.03 52 1010.2
20260509152524 21 0 1.6 24.1 0.00 0.08 0.03 55 1010.2
20260509152024 21 295 11.3 24.1 0.00 0.08 0.03 53 1010.3
20260509151535 21 347 0.0 22.5 0.00 0.08 0.03 56 1010.2
20260509151023 21 278 3.2 22.5 0.00 0.08 0.03 56 1010.2
20260509150523 20 273 3.2 16.1 0.00 0.08 0.03 57 1010.2
20260509150036 20 0 1.6 16.1 0.00 0.08 0.03 61 1010.2
20260509145523 20 0 0.0 16.1 0.00 0.08 0.03 60 1010.1
20260509145023 20 277 1.6 12.9 0.00 0.08 0.03 58 1010.2
20260509144544 20 0 0.0 6.4 0.00 0.08 0.03 61 1010.1
20260509144023 19 0 0.0 8.0 0.00 0.08 0.03 64 1010.2
20260509143527 18 0 0.0 8.0 0.00 0.08 0.03 64 1010.2
20260509143039 18 254 0.0 6.4 0.00 0.08 0.03 64 1010.2
20260509142524 18 297 0.0 12.9 0.00 0.08 0.03 67 1010.3
20260509142023 18 0 0.0 12.9 0.00 0.08 0.03 67 1010.2
20260509141539 18 310 0.0 4.8 0.00 0.08 0.03 68 1010.1
20260509141024 17 0 0.0 11.3 0.00 0.08 0.03 68 1010.3
20260509140523 17 284 0.0 11.3 0.00 0.08 0.03 71 1010.2
20260509140054 17 0 0.0 3.2 0.00 0.08 0.03 71 1010.2
20260509135526 16 0 0.0 6.4 0.00 0.08 0.03 73 1010.2
20260509135026 16 0 0.0 6.4 0.00 0.08 0.03 74 1010.2
20260509134537 16 0 0.0 3.2 0.00 0.08 0.03 75 1010.1
20260509134023 15 263 0.0 3.2 0.00 0.08 0.03 77 1010.1
20260509133521 15 0 0.0 3.2 0.00 0.08 0.03 78 1010.1
20260509133036 15 266 0.0 1.6 0.00 0.08 0.03 79 1010.1
20260509132522 14 0 0.0 3.2 0.00 0.08 0.03 81 1010.1
20260509132023 14 0 0.0 6.4 0.00 0.08 0.03 82 1010.2
20260509131545 13 0 0.0 6.4 0.00 0.08 0.03 84 1010.2
20260509131023 13 0 0.0 1.6 0.00 0.08 0.03 85 1010.1
20260509130523 12 0 0.0 6.4 0.00 0.08 0.03 86 1010.2
20260509130035 12 0 0.0 6.4 0.00 0.08 0.03 87 1010.2
20260509125527 12 0 0.0 3.2 0.00 0.08 0.03 87 1010.1
20260509125026 12 0 0.0 3.2 0.00 0.08 0.03 88 1010.1
20260509124542 12 0 0.0 6.4 0.00 0.08 0.03 89 1009.9
20260509124023 11 0 0.0 6.4 0.00 0.08 0.03 89 1009.9
20260509123523 11 0 0.0 1.6 0.00 0.08 0.03 89 1009.9
20260509123037 11 0 0.0 0.0 0.00 0.08 0.03 89 1009.8
20260509122522 11 0 0.0 0.0 0.00 0.08 0.03 89 1009.8
20260509122020 11 0 0.0 6.4 0.00 0.08 0.03 89 1009.7
20260509121551 11 0 0.0 6.4 0.00 0.08 0.03 90 1009.7
20260509121031 11 0 0.0 6.4 0.00 0.08 0.03 89 1009.7
20260509120523 10 0 0.0 6.4 0.00 0.08 0.03 90 1009.6
20260509120038 10 0 0.0 0.0 0.00 0.08 0.03 90 1009.7
20260509115523 10 0 0.0 0.0 0.00 0.08 0.03 90 1009.7
20260509115023 10 0 0.0 0.0 0.00 0.08 0.03 90 1009.6
20260509114535 10 0 0.0 0.0 0.03 0.08 0.03 90 1009.5
20260509114023 10 0 0.0 0.0 0.03 0.08 0.03 89 1009.5
20260509113522 10 0 0.0 0.0 0.03 0.08 0.03 89 1009.4
20260509113034 10 0 0.0 0.0 0.03 0.08 0.03 90 1009.3
20260509112521 10 0 0.0 0.0 0.03 0.08 0.03 90 1009.3
20260509112023 10 0 0.0 0.0 0.03 0.08 0.03 90 1009.4
20260509111538 10 0 0.0 0.0 0.03 0.08 0.03 89 1009.3
20260509111024 10 0 0.0 1.6 0.03 0.08 0.03 89 1009.2
20260509110523 10 0 0.0 1.6 0.03 0.08 0.03 89 1009.3
20260509110038 10 0 0.0 0.0 0.03 0.08 0.03 90 1009.3
20260509105525 10 0 0.0 0.0 0.03 0.08 0.03 90 1009.1
20260509105023 10 0 0.0 0.0 0.03 0.08 0.03 90 1009.1
20260509104537 10 0 0.0 0.0 0.00 0.05 0.00 89 1009.1
20260509104024 11 0 0.0 0.0 0.00 0.05 0.00 89 1009.0
20260509103526 11 0 0.0 0.0 0.00 0.05 0.00 90 1008.9
20260509103037 11 0 0.0 0.0 0.00 0.05 0.00 89 1008.9
20260509102525 11 0 0.0 0.0 0.00 0.05 0.00 89 1008.8
20260509102023 11 0 0.0 0.0 0.00 0.05 0.00 89 1008.8
20260509101537 11 0 0.0 0.0 0.00 0.05 0.00 89 1008.9
20260509101025 11 0 0.0 0.0 0.00 0.05 0.00 89 1008.9
20260509100523 11 0 0.0 0.0 0.00 0.05 0.00 89 1008.9
20260509100038 11 0 0.0 0.0 0.00 0.05 0.00 89 1008.8
20260509095526 11 0 0.0 0.0 0.00 0.05 0.00 89 1008.9
20260509095024 11 0 0.0 0.0 0.00 0.05 0.00 89 1008.9
20260509094538 11 0 0.0 0.0 0.00 0.05 0.00 89 1008.9
20260509094023 11 0 0.0 0.0 0.00 0.05 0.00 89 1008.9
20260509093526 11 0 0.0 0.0 0.00 0.05 0.00 89 1008.9
20260509093038 11 0 0.0 0.0 0.00 0.05 0.00 89 1008.9
20260509092525 11 0 0.0 0.0 0.00 0.05 0.00 89 1008.9
20260509092025 11 0 0.0 0.0 0.00 0.05 0.00 89 1008.9
20260509091536 11 0 0.0 0.0 0.00 0.05 0.00 89 1009.0
20260509091025 11 0 0.0 0.0 0.00 0.05 0.00 89 1009.0
20260509090526 11 0 0.0 0.0 0.00 0.05 0.00 89 1009.0
20260509090035 11 0 0.0 0.0 0.00 0.05 0.00 89 1009.1
20260509085525 11 0 0.0 0.0 0.00 0.05 0.00 89 1009.1
20260509085026 11 0 0.0 0.0 0.00 0.05 0.00 89 1009.1
20260509084544 11 0 0.0 0.0 0.00 0.05 0.00 89 1009.0
20260509084025 11 0 0.0 0.0 0.00 0.05 0.00 89 1009.0
20260509083524 12 0 0.0 0.0 0.00 0.05 0.00 89 1009.0
20260509083046 12 0 0.0 0.0 0.00 0.05 0.00 89 1009.0
20260509082526 12 0 0.0 0.0 0.00 0.05 0.00 89 1009.0
20260509082026 12 0 0.0 3.2 0.00 0.05 0.00 89 1008.9
20260509081536 12 0 0.0 8.0 0.00 0.05 0.00 89 1008.9
20260509081023 12 0 0.0 8.0 0.00 0.05 0.00 89 1009.0
20260509080523 12 0 0.0 3.2 0.00 0.05 0.00 89 1008.9
20260509080037 12 0 0.0 0.0 0.00 0.05 0.00 89 1008.9
20260509075525 11 0 0.0 0.0 0.00 0.05 0.00 89 1008.8
20260509075024 11 0 0.0 0.0 0.00 0.05 0.00 89 1009.0
20260509074537 11 0 0.0 1.6 0.00 0.05 0.00 89 1009.0
20260509074023 11 0 0.0 1.6 0.00 0.05 0.00 89 1008.9
20260509073523 11 0 0.0 0.0 0.00 0.05 0.00 89 1009.1
20260509073036 11 0 0.0 0.0 0.00 0.05 0.00 89 1009.2
20260509072521 11 0 0.0 0.0 0.00 0.05 0.00 89 1009.2
20260509072022 11 0 0.0 0.0 0.00 0.05 0.00 89 1009.2
20260509071542 11 0 0.0 0.0 0.00 0.05 0.00 89 1009.2
20260509071023 11 0 0.0 0.0 0.00 0.05 0.00 89 1009.3
20260509070523 11 0 0.0 0.0 0.00 0.05 0.00 89 1009.2
20260509070037 11 0 0.0 0.0 0.00 0.05 0.00 89 1009.3
20260509065522 11 0 0.0 0.0 0.00 0.05 0.00 89 1009.3
20260509065023 11 0 0.0 0.0 0.00 0.05 0.00 89 1009.4
20260509064536 11 0 0.0 0.0 0.00 0.05 0.00 89 1009.5
20260509064027 11 0 0.0 0.0 0.00 0.05 0.00 89 1009.4
20260509063526 11 0 0.0 0.0 0.00 0.05 0.00 89 1009.4
20260509063035 11 0 0.0 0.0 0.00 0.05 0.00 89 1009.5
20260509062526 11 0 0.0 0.0 0.00 0.05 0.00 89 1009.4
20260509062026 11 0 0.0 0.0 0.00 0.05 0.00 89 1009.5
20260509061542 11 0 0.0 0.0 0.00 0.05 0.00 89 1009.5
20260509061023 11 0 0.0 0.0 0.00 0.05 0.00 89 1009.6
20260509060521 11 0 0.0 0.0 0.00 0.05 0.00 89 1009.6
20260509060038 11 0 0.0 0.0 0.00 0.05 0.00 89 1009.7
20260509055523 11 0 0.0 0.0 0.00 0.05 0.00 89 1009.6
20260509055024 11 0 0.0 0.0 0.00 0.05 0.00 89 1009.6
20260509054540 11 0 0.0 0.0 0.00 0.05 0.00 89 1009.7
20260509054024 11 0 0.0 0.0 0.00 0.05 0.00 89 1009.7
20260509053521 12 0 0.0 0.0 0.00 0.05 0.00 89 1009.6
20260509053058 12 0 0.0 0.0 0.00 0.05 0.00 89 1009.6
20260509052525 12 0 0.0 0.0 0.00 0.05 0.00 89 1009.7
20260509052023 12 0 0.0 0.0 0.00 0.05 0.00 89 1009.7
20260509051536 12 0 0.0 0.0 0.00 0.05 0.00 89 1009.8
20260509051025 12 0 0.0 0.0 0.00 0.05 0.00 89 1009.8
20260509050523 11 0 0.0 0.0 0.00 0.05 0.00 89 1009.8
20260509050037 11 0 0.0 0.0 0.00 0.05 0.00 89 1009.8
20260509045524 11 0 0.0 0.0 0.00 0.05 0.05 89 1009.7
20260509045024 11 0 0.0 0.0 0.00 0.05 0.05 89 1009.6
20260509044539 12 0 0.0 0.0 0.00 0.05 0.05 89 1009.6
20260509044024 12 0 0.0 0.0 0.00 0.05 0.05 89 1009.5
20260509043522 12 0 0.0 0.0 0.00 0.05 0.05 89 1009.6
20260509043048 12 0 0.0 0.0 0.00 0.05 0.05 89 1009.6
20260509042524 12 0 0.0 0.0 0.00 0.05 0.05 89 1009.6
20260509042025 12 0 0.0 0.0 0.00 0.05 0.05 89 1009.5
20260509041550 12 0 0.0 0.0 0.00 0.05 0.05 89 1009.5
20260509041023 12 0 0.0 0.0 0.00 0.05 0.05 89 1009.6
20260509040524 12 0 0.0 0.0 0.00 0.05 0.05 89 1009.6
20260509040035 12 0 0.0 0.0 0.00 0.05 0.05 89 1009.6
20260509035524 12 0 0.0 0.0 0.00 0.05 0.05 89 1009.6
20260509035026 12 0 0.0 0.0 0.00 0.05 0.05 89 1009.8
20260509034559 12 0 0.0 0.0 0.00 0.05 0.05 89 1009.7
20260509034024 12 0 0.0 0.0 0.00 0.05 0.05 89 1009.6
20260509033525 12 0 0.0 0.0 0.00 0.05 0.05 88 1009.6
20260509033037 12 0 0.0 0.0 0.00 0.05 0.05 89 1009.6
20260509032524 12 0 0.0 0.0 0.00 0.05 0.05 89 1009.6
20260509032023 12 0 0.0 0.0 0.00 0.05 0.05 89 1009.5
20260509031539 12 0 0.0 0.0 0.00 0.05 0.05 88 1009.5
20260509031024 12 0 0.0 0.0 0.00 0.05 0.05 88 1009.6
20260509030526 12 0 0.0 0.0 0.00 0.05 0.05 88 1009.5
20260509030036 12 0 0.0 0.0 0.00 0.05 0.05 88 1009.6
20260509025524 13 0 0.0 0.0 0.00 0.05 0.05 88 1009.6
20260509025024 13 0 0.0 0.0 0.00 0.05 0.05 88 1009.5
20260509024536 13 0 0.0 0.0 0.00 0.05 0.05 88 1009.4
20260509024028 13 0 0.0 0.0 0.00 0.05 0.05 88 1009.3
20260509023526 13 0 0.0 0.0 0.00 0.05 0.05 88 1009.2
20260509023040 13 0 0.0 0.0 0.00 0.05 0.05 87 1009.2
20260509022525 13 0 0.0 0.0 0.00 0.05 0.05 87 1009.2
20260509022024 13 0 0.0 0.0 0.00 0.05 0.05 87 1009.0
20260509021538 13 0 0.0 0.0 0.00 0.05 0.05 87 1008.9
20260509021025 14 0 0.0 0.0 0.00 0.05 0.05 87 1009.0
20260509020523 14 0 0.0 0.0 0.00 0.05 0.05 86 1009.0
20260509020047 14 0 0.0 0.0 0.00 0.05 0.05 86 1009.0
20260509015526 15 0 0.0 0.0 0.00 0.05 0.05 86 1008.8